This demonstration page uses our WeatherBlox Daily Observations layout. Learn more.

Left ArrowRight Arrow

Hourly Observations for November 12, 2015

Temp ( °F °C ) Dew Point ( °F °C ) Humidity (%) Winds ( mph kmh ) Pressure ( in mb ) Visibility ( mi km ) Precip ( " mm )
12:53 am 00:53 Cloudy with Heavy Rain 50 10 48 8.9 93 93 ESE 3 6 29.69 1006 3 4 0.13 3.30
1:14 am 01:14 Cloudy with Heavy Rain 50 10 49 9.4 96 96 Calm 29.71 1006 3 5 0.13 3.30
1:53 am 01:53 Cloudy with Light Rain 50 10 49 9.4 96 96 ESE 6 9 29.64 1004 7 11 0.15 3.81
2:23 am 02:23 Cloudy with Rain 51 10.6 50 10 96 96 VRB 3 6 29.62 1003 4 6 0.05 1.27
2:37 am 02:37 Cloudy 51 10.6 50 10 96 96 VRB 7 11 29.62 1003 10 16 0.05 1.27
2:53 am 02:53 Cloudy 52 11.1 50 10 93 93 VRB 5 7 29.60 1003 10 16 0.05 1.27
3:15 am 03:15 Cloudy 53 11.7 51 10.6 93 93 S 7 11 29.59 1002 10 16 0.00 0.00
3:24 am 03:24 Cloudy 54 12.2 52 11.1 93 93 VRB 7 11 29.59 1002 10 16 0.00 0.00
3:53 am 03:53 Cloudy 56 13.3 53 11.7 90 90 undefined N/A 29.57 1001 10 16 0.00 0.00
4:53 am 04:53 Cloudy 56 13.3 53 11.7 90 90 VRB 6 9 29.56 1001 10 16 0.00 0.00
5:53 am 05:53 Mostly Cloudy 59 15 55 12.8 87 87 SSW 9 15 29.55 1001 10 16 0.00 0.00
6:08 am 06:08 Mostly Cloudy 59 15 55 12.8 87 87 SSW 10 17 29.56 1001 10 16 0.00 0.00
6:53 am 06:53 Mostly Cloudy 60 15.6 55 12.8 84 84 SSW 10 17 29.55 1001 10 16 0.00 0.00
7:14 am 07:14 Mostly Cloudy 58 14.4 44 6.7 60 60 W 16 26 29.59 1002 10 16 0.00 0.03
7:53 am 07:53 Sunny 54 12.2 42 5.6 64 64 W 16 26 29.62 1003 10 16 0.00 0.03
8:53 am 08:53 Mostly Cloudy 53 11.7 39 3.9 59 59 W 20 31 29.68 1005 10 16 0.00 0.00
9:53 am 09:53 Cloudy 53 11.7 40 4.4 61 61 WSW 17 28 29.71 1006 10 16 0.00 0.00
10:53 am 10:53 Cloudy 52 11.1 40 4.4 64 64 WSW 13 20 29.74 1007 10 16 0.00 0.00
11:53 am 11:53 Cloudy 52 11.1 39 3.9 61 61 WSW 26 43 29.75 1008 10 16 0.00 0.00
12:53 pm 12:53 Cloudy 52 11.1 40 4.4 64 64 WSW 15 24 29.76 1008 10 16 0.00 0.00
1:53 pm 13:53 Cloudy 54 12.2 39 3.9 57 57 WSW 26 43 29.77 1008 10 16 0.00 0.00
2:53 pm 14:53 Cloudy 54 12.2 40 4.4 59 59 W 15 24 29.78 1009 10 16 0.00 0.00
3:53 pm 15:53 Cloudy 54 12.2 40 4.4 59 59 WSW 17 28 29.81 1010 10 16 0.00 0.00
4:53 pm 16:53 Cloudy 53 11.7 40 4.4 61 61 W 16 26 29.84 1011 10 16 0.00 0.00
5:53 pm 17:53 Cloudy 53 11.7 40 4.4 61 61 WSW 14 22 29.87 1012 10 16 0.00 0.00
6:53 pm 18:53 Cloudy 52 11.1 40 4.4 64 64 WSW 10 17 29.91 1013 10 16 0.00 0.00
7:53 pm 19:53 Mostly Cloudy 51 10.6 40 4.4 66 66 WSW 7 11 29.92 1013 10 16 0.00 0.00
8:53 pm 20:53 Clear 49 9.4 39 3.9 69 69 W 8 13 29.93 1014 10 16 0.00 0.00
9:53 pm 21:53 Clear 50 10 36 2.2 59 59 W 10 17 29.95 1014 10 16 0.00 0.00
10:53 pm 22:53 Clear 50 10 33 0.6 52 52 W 12 19 29.95 1014 10 16 0.00 0.00
11:53 pm 23:53 Clear 49 9.4 32 0 52 52 W 12 19 29.96 1015 10 16 0.00 0.00

Powered by AerisWeather